TimeEDT,TemperatureF,Dew PointF,Humidity,Sea Level PressureIn,VisibilityMPH,Wind Direction,Wind SpeedMPH,Gust SpeedMPH,PrecipitationIn,Events,Conditions,WindDirDegrees,DateUTC
12:51 AM,39.9,39.0,97,29.39,1.0,Calm,Calm,-,0.03,Rain,Light Rain,0,2012-10-31 04:51:00
1:51 AM,41.0,39.0,93,29.39,1.0,Variable,4.6,-,0.06,Rain,Light Rain,0,2012-10-31 05:51:00
2:09 AM,42.8,39.2,87,29.35,3.0,West,8.1,17.3,0.01,Rain,Light Rain,270,2012-10-31 06:09:00
2:35 AM,41.0,39.2,93,29.37,7.0,West,12.7,-,0.01,Rain,Light Rain,260,2012-10-31 06:35:00
2:51 AM,41.0,37.9,89,29.41,7.0,West,11.5,18.4,0.01,Rain,Light Rain,260,2012-10-31 06:51:00
3:10 AM,39.2,37.4,93,29.38,8.0,West,9.2,21.9,0.01,Rain,Light Rain,270,2012-10-31 07:10:00
3:51 AM,39.0,37.0,93,29.43,4.0,WSW,8.1,17.3,0.04,Rain,Light Rain,250,2012-10-31 07:51:00
4:51 AM,37.9,36.0,93,29.44,7.0,WSW,11.5,19.6,0.02,Rain,Light Rain,250,2012-10-31 08:51:00
5:51 AM,37.0,35.1,93,29.47,5.0,WSW,13.8,18.4,0.03,Rain-Snow,Light Rain,250,2012-10-31 09:51:00
6:51 AM,36.0,33.1,89,29.49,8.0,WSW,10.4,18.4,0.02,Rain-Snow,Light Rain,240,2012-10-31 10:51:00
7:51 AM,36.0,34.0,93,29.50,6.0,WSW,9.2,-,0.03,Rain-Snow,Light Rain,240,2012-10-31 11:51:00
8:51 AM,36.0,34.0,93,29.52,5.0,WSW,11.5,19.6,0.03,Rain-Snow,Light Rain,240,2012-10-31 12:51:00
9:51 AM,37.0,35.1,93,29.53,4.0,WSW,11.5,-,0.04,Rain-Snow,Light Rain,240,2012-10-31 13:51:00
10:32 AM,37.4,35.6,93,29.49,3.0,WSW,12.7,18.4,0.01,Rain-Snow,Light Rain,250,2012-10-31 14:32:00
10:51 AM,37.0,35.1,93,29.54,3.0,WSW,10.4,18.4,0.01,Rain-Snow,Light Rain,250,2012-10-31 14:51:00
11:51 AM,37.9,35.1,89,29.55,3.0,WSW,11.5,20.7,0.02,Rain-Snow,Light Rain,250,2012-10-31 15:51:00
12:38 PM,37.4,35.6,93,29.52,7.0,West,10.4,19.6,0.00,Rain-Snow,Light Rain,260,2012-10-31 16:38:00
12:51 PM,37.9,35.1,89,29.56,7.0,West,12.7,19.6,0.00,Rain-Snow,Light Rain,260,2012-10-31 16:51:00
1:51 PM,39.0,36.0,89,29.57,8.0,West,10.4,19.6,0.01,,Light Drizzle,260,2012-10-31 17:51:00
2:34 PM,39.2,35.6,87,29.53,6.0,West,13.8,20.7,0.00,Rain,Light Rain,260,2012-10-31 18:34:00
2:51 PM,39.0,36.0,89,29.58,7.0,West,9.2,18.4,0.00,Rain,Light Rain,260,2012-10-31 18:51:00
3:51 PM,39.0,36.0,89,29.60,10.0,West,6.9,-,0.00,Rain,Light Rain,260,2012-10-31 19:51:00
4:51 PM,39.0,37.0,93,29.61,3.0,WSW,8.1,-,0.00,Rain,Light Rain,250,2012-10-31 20:51:00
5:51 PM,39.0,37.0,93,29.62,3.0,WSW,8.1,-,0.02,Rain,Light Rain,250,2012-10-31 21:51:00
6:51 PM,39.0,37.0,93,29.64,10.0,West,10.4,-,0.00,Rain,Light Rain,260,2012-10-31 22:51:00
7:51 PM,39.0,37.0,93,29.66,8.0,WSW,8.1,-,0.00,Rain,Light Rain,250,2012-10-31 23:51:00
8:51 PM,39.0,36.0,89,29.67,10.0,West,6.9,-,0.02,Rain,Light Rain,260,2012-11-01 00:51:00
9:51 PM,37.9,36.0,93,29.68,10.0,WSW,5.8,-,0.02,Rain,Light Rain,250,2012-11-01 01:51:00
10:51 PM,37.9,36.0,93,29.68,6.0,WSW,6.9,-,0.01,Rain,Light Rain,240,2012-11-01 02:51:00